STARLINK-33930 (63776 NORAD) Tracking and Keplerian Element Data

This shows tracking and keplerian element data for the satellite.

Feedback or suggestion? Click here.




ElementValue
Catalog63776
NameSTARLINK-33930
Epoch Orbit3673
Epoch Day354.14702288
Epoch Year2025
RAAN142.0522
Inclination43.0057
Eccentricity0.00031
Argument of Perigee273.7431
Mean Anonmoly86.3066
Mean Motion15.27600941
Decay Rate0.00020261
L11 63776U 25091B 25354.14702288 .00020261 00000+0 74324-3 0 9990
L22 63776 43.0057 142.0522 0003100 273.7431 86.3066 15.27600941 36730



Live tracking and technical data element details for STARLINK-33930 (NORAD 63776). STARLINK-33930 can be tracked NOW for your location showing map with azimuth and elevation plus other details from your city location.







IsCatalogInMostPopularTable: catalog: 63776, numindb: 2
Update: records affected: 1



GetName: 63776 STARLINK-33930

Hit Count: updated at: Tue, 10 Feb 2026 03:55:57 GMT